ZHONGXING-6B

Last updated on Thu Oct 30 2025 00:02:47 GMT+0000 (Coordinated Universal Time)

1 31800U 07031A 25302.55949744 -.00000347 00000+0 00000+0 0 9995 2 31800 1.7945 84.2364 0005158 160.8468 107.9089 1.00266110 67115
UTC large
Height (km)
Speed (km/s)
/
Latitude / Longitude
Inclination (degrees)
Orbital Period (minutes)
Azimuth
Elevation
Range (km)
Doppler Factor

Next 0 passes for location: London (51.5072 / 0.1276)

Sorry there are no passes over London.